ASA65 PAKT-PAWG

Flight info

Callsign ASA65
Flight time 0h 24m
Altitude 14000
Route SKOWL2 DOOZI
Aircraft B737/M-SDE2E3FGHIRWXY/LB1

Departure

Time 2026-05-01 12:51
Airport Ketchikan International Airport (PAKT)

Arrival

Time 2026-05-01 13:15
Airport Wrangell Airport (PAWG)
Time Latitude Longitude Altitude Speed Heading
2026-05-01 12:36 55.35663 -131.71029 41 ft 0 kts 45°
2026-05-01 12:42 55.35647 -131.71058 38 ft 4 kts 47°
2026-05-01 12:42 55.35629 -131.71094 40 ft 4 kts 54°
2026-05-01 12:43 55.35616 -131.71134 41 ft 4 kts 79°
2026-05-01 12:43 55.35615 -131.71158 41 ft 4 kts 121°
2026-05-01 12:43 55.35618 -131.71166 41 ft 1 kts 136°
2026-05-01 12:46 55.35615 -131.71162 41 ft 2 kts 136°
2026-05-01 12:46 55.35595 -131.71127 40 ft 6 kts 136°
2026-05-01 12:46 55.35552 -131.71054 40 ft 11 kts 136°
2026-05-01 12:47 55.35488 -131.70945 41 ft 15 kts 136°
2026-05-01 12:47 55.35404 -131.70799 45 ft 18 kts 135°
2026-05-01 12:47 55.35315 -131.70647 59 ft 18 kts 137°
2026-05-01 12:47 55.35227 -131.70506 73 ft 17 kts 138°
2026-05-01 12:48 55.35141 -131.70369 94 ft 16 kts 138°
2026-05-01 12:48 55.35053 -131.70227 99 ft 19 kts 137°
2026-05-01 12:48 55.34960 -131.70077 99 ft 14 kts 137°
2026-05-01 12:48 55.34876 -131.70053 100 ft 12 kts 213°
2026-05-01 12:49 55.34811 -131.70081 99 ft 9 kts 160°
2026-05-01 12:49 55.34760 -131.70007 100 ft 10 kts 135°
2026-05-01 12:49 55.34701 -131.69937 98 ft 11 kts 163°
2026-05-01 12:49 55.34683 -131.69876 98 ft 1 kts 19°
2026-05-01 12:50 55.34688 -131.69881 98 ft 2 kts 332°
2026-05-01 12:50 55.34765 -131.70016 100 ft 48 kts 315°
2026-05-01 12:50 55.35190 -131.70752 97 ft 121 kts 316°
2026-05-01 12:50 55.35900 -131.71973 331 ft 153 kts 315°
2026-05-01 12:51 55.36366 -131.72869 891 ft 147 kts 307°
2026-05-01 12:51 55.37071 -131.74255 1531 ft 161 kts 315°
2026-05-01 12:51 55.38784 -131.77327 2969 ft 190 kts 314°
2026-05-01 12:52 55.39736 -131.79171 3456 ft 220 kts 312°
2026-05-01 12:52 55.42014 -131.83680 4594 ft 262 kts 312°
2026-05-01 12:52 55.43242 -131.86072 5763 ft 264 kts 312°
2026-05-01 12:53 55.45769 -131.90960 7945 ft 274 kts 311°
2026-05-01 12:53 55.47061 -131.93462 9042 ft 278 kts 311°
2026-05-01 12:53 55.48369 -131.95998 10107 ft 282 kts 310°
2026-05-01 12:54 55.49724 -131.98631 10701 ft 303 kts 310°
2026-05-01 12:54 55.52773 -132.04575 11675 ft 338 kts 311°
2026-05-01 12:54 55.54489 -132.07432 11956 ft 341 kts 322°
2026-05-01 12:55 55.58579 -132.12081 11978 ft 353 kts 327°
2026-05-01 12:55 55.60653 -132.14416 12102 ft 356 kts 326°
2026-05-01 12:55 55.62734 -132.16828 13156 ft 357 kts 325°
2026-05-01 12:56 55.64807 -132.19207 13824 ft 355 kts 327°
2026-05-01 12:56 55.66913 -132.21475 13986 ft 354 kts 328°
2026-05-01 12:56 55.69028 -132.23699 13982 ft 352 kts 328°
2026-05-01 12:56 55.71193 -132.25969 14013 ft 375 kts 328°
2026-05-01 12:57 55.73499 -132.28399 13995 ft 393 kts 328°
2026-05-01 12:57 55.78214 -132.33397 13981 ft 393 kts 328°
2026-05-01 12:57 55.80560 -132.35900 13980 ft 393 kts 328°
2026-05-01 12:58 55.82901 -132.38405 13982 ft 393 kts 327°
2026-05-01 12:58 55.85241 -132.40916 13986 ft 393 kts 327°
2026-05-01 12:58 55.87580 -132.43431 13986 ft 393 kts 327°
2026-05-01 12:59 55.92265 -132.48480 13989 ft 394 kts 327°
2026-05-01 12:59 55.94609 -132.51012 13989 ft 394 kts 327°
2026-05-01 12:59 55.99300 -132.56090 13990 ft 394 kts 327°
2026-05-01 13:00 56.03988 -132.61179 13992 ft 394 kts 327°
2026-05-01 13:00 56.06332 -132.63729 13993 ft 394 kts 327°
2026-05-01 13:01 56.10988 -132.68804 13998 ft 394 kts 327°
2026-05-01 13:01 56.13331 -132.71364 14009 ft 395 kts 327°
2026-05-01 13:01 56.17995 -132.76469 13977 ft 383 kts 327°
2026-05-01 13:02 56.20205 -132.78890 13969 ft 361 kts 327°
2026-05-01 13:07 56.56835 -132.91969 6393 ft 255 kts 43°
2026-05-01 13:07 56.58123 -132.89861 6271 ft 244 kts 43°
2026-05-01 13:07 56.59359 -132.87840 6178 ft 235 kts 43°
2026-05-01 13:08 56.60548 -132.85896 6089 ft 226 kts 43°
2026-05-01 13:08 56.61688 -132.84025 5954 ft 216 kts 45°
2026-05-01 13:08 56.62457 -132.81782 5628 ft 210 kts 80°
2026-05-01 13:08 56.62394 -132.79202 5247 ft 204 kts 110°
2026-05-01 13:09 56.61770 -132.76925 4865 ft 200 kts 122°
2026-05-01 13:09 56.61069 -132.74780 4691 ft 195 kts 123°
2026-05-01 13:09 56.60368 -132.72651 4693 ft 200 kts 123°
2026-05-01 13:09 56.59645 -132.70471 4656 ft 205 kts 123°
2026-05-01 13:10 56.58912 -132.68229 4385 ft 205 kts 122°
2026-05-01 13:10 56.58204 -132.66094 4104 ft 195 kts 124°
2026-05-01 13:10 56.57516 -132.64035 3777 ft 185 kts 123°
2026-05-01 13:10 56.56869 -132.62084 3483 ft 176 kts 123°
2026-05-01 13:11 56.56255 -132.60250 3234 ft 165 kts 123°
2026-05-01 13:11 56.55689 -132.58567 3010 ft 147 kts 123°
2026-05-01 13:11 56.55180 -132.57055 2751 ft 135 kts 124°
2026-05-01 13:11 56.54698 -132.55626 2534 ft 132 kts 124°
2026-05-01 13:12 56.54215 -132.54189 2347 ft 135 kts 122°
2026-05-01 13:12 56.53735 -132.52733 2151 ft 134 kts 121°
2026-05-01 13:12 56.53260 -132.51288 1941 ft 134 kts 119°
2026-05-01 13:12 56.52790 -132.49837 1728 ft 133 kts 122°
2026-05-01 13:13 56.52307 -132.48421 1498 ft 132 kts 121°
2026-05-01 13:13 56.51837 -132.47028 1314 ft 130 kts 121°
2026-05-01 13:13 56.51363 -132.45633 1124 ft 130 kts 122°
2026-05-01 13:13 56.50893 -132.44251 922 ft 127 kts 122°
2026-05-01 13:14 56.50411 -132.42857 730 ft 135 kts 121°
2026-05-01 13:14 56.49942 -132.41366 533 ft 137 kts 122°
2026-05-01 13:14 56.49448 -132.39974 310 ft 130 kts 122°
2026-05-01 13:14 56.48983 -132.38614 110 ft 125 kts 120°
2026-05-01 13:15 56.48560 -132.37339 35 ft 100 kts 118°
2026-05-01 13:15 56.48306 -132.36606 33 ft 41 kts 122°
2026-05-01 13:15 56.48209 -132.36323 34 ft 23 kts 121°
2026-05-01 13:15 56.48129 -132.36084 37 ft 22 kts 121°
2026-05-01 13:16 56.48051 -132.35857 37 ft 16 kts 123°
2026-05-01 13:16 56.48018 -132.35746 36 ft 7 kts 11°
2026-05-01 13:16 56.48043 -132.35821 36 ft 9 kts 294°
2026-05-01 13:17 56.48225 -132.36371 35 ft 26 kts 301°
2026-05-01 13:17 56.48329 -132.36677 34 ft 30 kts 302°
2026-05-01 13:18 56.48501 -132.37190 35 ft 20 kts 298°
2026-05-01 13:18 56.48514 -132.37305 34 ft 0 kts 269°
2026-05-01 13:18 56.48514 -132.37310 34 ft 2 kts 269°
2026-05-01 13:18 56.48514 -132.37333 34 ft 0 kts 269°
2026-05-01 13:19 56.48518 -132.37337 34 ft 2 kts 319°
2026-05-01 13:19 56.48556 -132.37379 34 ft 11 kts 319°
2026-05-01 13:19 56.48650 -132.37628 33 ft 12 kts 300°
2026-05-01 13:20 56.48673 -132.37769 33 ft 12 kts 263°
2026-05-01 13:20 56.48620 -132.37875 34 ft 11 kts 213°
2026-05-01 13:20 56.48599 -132.37898 33 ft 0 kts 211°
2026-05-01 13:21 56.48599 -132.37900 33 ft 0 kts 221°
2026-05-01 13:21 56.48598 -132.37908 33 ft 3 kts 249°
2026-05-01 13:21 56.48596 -132.37992 40 ft 8 kts 258°
2026-05-01 13:22 56.48579 -132.38006 33 ft 2 kts 193°
2026-05-01 13:22 56.48570 -132.37991 32 ft 0 kts 123°
2026-05-01 13:22 56.48544 -132.37921 34 ft 0 kts 301°